DELTA 1 DEB, 13525

Orbit data source: Space-Track

DELTA 1 DEB, 13525 is space debris in SSO originally from a launch on Tue, 06 Nov 1973 UTC launched from the Air Force Western Test Range (AFWTR). Debris objects in space refer to the collection of defunct objects orbiting the Earth. Examples of debris include non-operational satellites, rocket bodies, and fragments generated from explosions, collisions, or faulty payload assembly.

Loading next visibility...
Identifier
13525, 1973-086GN
Orbit
SSO
Country
Flag of USUS
Related business
Manufacturer
Unknown
Mission
Spacecraft
Bus & Motor
Unknown
Mass
Unknown
Launch date (UTC)
1973-11-06 (52 years ago)
Launch vehicle
Unknown
Launch site
Air Force Western Test Range (AFWTR)
Object type
Payload
Rocket body
Debris
Shape & HBR
Unknown shape, 0.1 m
Radar Cross Section
Small (<0.1 m²)

Expand to show TLE details & history
Last TLE update: 16 hours ago

TLE from 16 hours ago
0 DELTA 1 DEB
1 13525U 73086GN  26033.51883850 -.00000018  00000-0  17883-3 0  9992
2 13525 101.9324  11.7264 0077283 245.1916 242.3883 12.51192018 80002
Epoch: 2026-02-02T12:27Z
TLE epoch observation values (Epoch: 2026-02-02T12:27:07.646Z)
Latitude
51.67096°
Longitude
-112.34224°
Altitude
1,496.072 km
Speed
7.108 km/s
True Right ascension
13h 48m 36s
True Declination
51° 31' 09"
Sunlit
Object was in daylight at epoch
Visualization orbit readout
Latitude
Unknown
Longitude
Unknown
Altitude
Unknown
Speed
Unknown
Apparent Right ascension
Unknown
Apparent Declination
Unknown
Sunlit
N/A
Visualization observer readout
Local Sidereal Time
06:41:21
Azimuth
Unknown
Elevation
Unknown
Doppler factor
Unknown
Orbital elements
Apogee altitude
1,517.622 km
Perigee altitude
1,396.516 km
Semi-major axis
7,835.206 km
Eccentricity
0.00773
Inclination
101.9324°
RAAN
11.7264°
Arg. of periapsis
245.1916°
True anomaly
241.60709°
Mean anomaly
242.3883°
Eccentric anomaly
241.99734°
Mean motion
3.12945 °/min
Orbital period
115.04 mins
BSTAR
0.00017883
Loading maneuver chart data...
Computing Atmospheric mass density...

Documentation

Showing up to 5 results
|